Massena, NY
on Friday, December 8, 2017

Friday
       
Previous Day Next Day
Daily Summary
 ActualAverageRecord
Temperature
Mean Temperature °F °C 26°F -3°C  
Max Temperature 33°F 1°C 33°F 1°C 59°F 15°C (1966)
Min Temperature 24°F -4°C 18°F -8°C -17°F -27°C (2000)
Degree Days
Heating Degree Days 36 40  
Month to date heating degree days 228 304  
Since 1 July heating degree days 1627 2073  
Cooling Degree Days 0 0  
Month to date cooling degree days 0 0  
Year to date cooling degree days 399 363  
Moisture
Dew Point 23°F -5°C   
Average Humidity 71    
Maximum Humidity 88    
Minimum Humidity 54    
Precipitation
Precipitation T in / T cm 0.09 in / 2.29 cm 0.73 in / 1.85 cm (1980)
Month to date precipitation 0.21 0.69  
Year to date precipitation 38.26 33.22  
Wind
Wind Speed 12 mph / 19 km/h   
Max Wind Speed 23 mph / 37 km/h   
Max Gust Speed 30 mph / 48 km/h   
Visibility 10 miles / 15 kilometers   
Events Snow   

Key: T is trace of precipitation, MM is missing value
Source: NWS Daily Summary
Time(EST)TemperatureDew PointHumidity Pressure Visibility Wind DirectionWind SpeedGust SpeedPrecipitationEvents Conditions
12:53 AM 30.0°F -1.1°C 21.9°F -5.6°C 72% 29.89 in / 1012.2 hPa 10.0 miles / 16.1 kilometers SW 8.1 mph / 13.0 km/h 18.4 mph / 29.6 km/h N/A   Overcast
1:53 AM 30.0°F -1.1°C 21.9°F -5.6°C 72% 29.91 in / 1012.6 hPa 10.0 miles / 16.1 kilometers SW 10.4 mph / 16.7 km/h - N/A   Overcast
2:53 AM 27.0°F -2.8°C 21.9°F -5.6°C 81% 29.92 in / 1013.1 hPa 10.0 miles / 16.1 kilometers SW 8.1 mph / 13.0 km/h - N/A   Scattered Clouds
3:53 AM 27.0°F -2.8°C 21.9°F -5.6°C 81% 29.93 in / 1013.4 hPa 10.0 miles / 16.1 kilometers SW 6.9 mph / 11.1 km/h - N/A   Mostly Cloudy
4:53 AM 24.1°F -4.4°C 21.0°F -6.1°C 88% 29.94 in / 1013.7 hPa 10.0 miles / 16.1 kilometers SSW 5.8 mph / 9.3 km/h - N/A   Scattered Clouds
5:53 AM 26.1°F -3.3°C 21.9°F -5.6°C 84% 29.94 in / 1013.8 hPa 10.0 miles / 16.1 kilometers SSW 6.9 mph / 11.1 km/h - N/A   Mostly Cloudy
6:53 AM 27.0°F -2.8°C 21.9°F -5.6°C 81% 29.95 in / 1014.0 hPa 10.0 miles / 16.1 kilometers SSW 9.2 mph / 14.8 km/h - N/A   Mostly Cloudy
7:53 AM 28.0°F -2.2°C 21.9°F -5.6°C 78% 29.94 in / 1013.9 hPa 10.0 miles / 16.1 kilometers SSW 9.2 mph / 14.8 km/h - N/A   Overcast
8:53 AM 30.0°F -1.1°C 24.1°F -4.4°C 79% 29.95 in / 1014.1 hPa 10.0 miles / 16.1 kilometers SSW 10.4 mph / 16.7 km/h - N/A   Unknown
9:53 AM 30.9°F -0.6°C 24.1°F -4.4°C 76% 29.96 in / 1014.3 hPa 10.0 miles / 16.1 kilometers SW 12.7 mph / 20.4 km/h - N/A   Overcast
10:53 AM 30.9°F -0.6°C 24.1°F -4.4°C 76% 29.94 in / 1013.9 hPa 10.0 miles / 16.1 kilometers SSW 12.7 mph / 20.4 km/h - N/A   Overcast
11:24 AM 30.9°F -0.6°C 24.1°F -4.4°C 76% 29.91 in / 1012.8 hPa 5.0 miles / 8.0 kilometers SW 16.1 mph / 25.9 km/h 20.7 mph / 33.3 km/h 0.00 in / 0.0 cm Snow Light Snow
11:53 AM 32.0°F 0.0°C 25.0°F -3.9°C 75% 29.92 in / 1013.2 hPa 10.0 miles / 16.1 kilometers SW 15.0 mph / 24.1 km/h - 0.00 in / 0.0 cm   Mostly Cloudy
12:24 PM 32.0°F 0.0°C 24.1°F -4.4°C 73% 29.91 in / 1012.8 hPa 10.0 miles / 16.1 kilometers SW 18.4 mph / 29.6 km/h 23.0 mph / 37.0 km/h N/A   Overcast
12:53 PM 30.9°F -0.6°C 25.0°F -3.9°C 79% 29.91 in / 1012.7 hPa 8.0 miles / 12.9 kilometers SW 12.7 mph / 20.4 km/h - N/A   Overcast
1:53 PM 30.9°F -0.6°C 27.0°F -2.8°C 85% 29.89 in / 1012.1 hPa 6.0 miles / 9.7 kilometers SW 15.0 mph / 24.1 km/h 19.6 mph / 31.5 km/h 0.00 in / 0.0 cm Snow Light Snow
2:53 PM 30.9°F -0.6°C 26.1°F -3.3°C 82% 29.88 in / 1011.6 hPa 10.0 miles / 16.1 kilometers SSW 15.0 mph / 24.1 km/h 27.6 mph / 44.4 km/h 0.00 in / 0.0 cm   Overcast
3:03 PM 32.0°F 0.0°C 25.0°F -3.9°C 75% 29.87 in / 1011.4 hPa 10.0 miles / 16.1 kilometers SSW 17.3 mph / 27.8 km/h 27.6 mph / 44.4 km/h N/A   Overcast
3:23 PM 32.0°F 0.0°C 25.0°F -3.9°C 75% 29.88 in / 1011.7 hPa 10.0 miles / 16.1 kilometers SSW 13.8 mph / 22.2 km/h - N/A   Overcast
3:53 PM 30.9°F -0.6°C 25.0°F -3.9°C 79% 29.90 in / 1012.4 hPa 7.0 miles / 11.3 kilometers SSW 12.7 mph / 20.4 km/h 21.9 mph / 35.2 km/h 0.00 in / 0.0 cm Snow Light Snow
4:53 PM 32.0°F 0.0°C 23.0°F -5.0°C 69% 29.89 in / 1012.2 hPa 10.0 miles / 16.1 kilometers South 13.8 mph / 22.2 km/h - 0.00 in / 0.0 cm   Overcast
5:53 PM 32.0°F 0.0°C 21.9°F -5.6°C 66% 29.90 in / 1012.4 hPa 10.0 miles / 16.1 kilometers SSW 13.8 mph / 22.2 km/h - N/A   Overcast
6:53 PM 32.0°F 0.0°C 19.9°F -6.7°C 61% 29.91 in / 1012.7 hPa 10.0 miles / 16.1 kilometers SSW 16.1 mph / 25.9 km/h 20.7 mph / 33.3 km/h N/A   Overcast
7:53 PM 32.0°F 0.0°C 19.9°F -6.7°C 61% 29.91 in / 1012.9 hPa 10.0 miles / 16.1 kilometers SSW 11.5 mph / 18.5 km/h - N/A   Overcast
8:53 PM 32.0°F 0.0°C 19.0°F -7.2°C 59% 29.90 in / 1012.5 hPa 10.0 miles / 16.1 kilometers SSW 15.0 mph / 24.1 km/h 24.2 mph / 38.9 km/h N/A   Overcast
9:53 PM 32.0°F 0.0°C 18.0°F -7.8°C 56% 29.90 in / 1012.3 hPa 10.0 miles / 16.1 kilometers SSW 15.0 mph / 24.1 km/h - N/A   Overcast
10:53 PM 30.9°F -0.6°C 18.0°F -7.8°C 59% 29.91 in / 1012.7 hPa 10.0 miles / 16.1 kilometers SSW 15.0 mph / 24.1 km/h - N/A   Mostly Cloudy
11:53 PM 30.0°F -1.1°C 19.0°F -7.2°C 64% 29.90 in / 1012.4 hPa 10.0 miles / 16.1 kilometers SSW 11.5 mph / 18.5 km/h - N/A   Clear